GPS BIIRM-4 (PRN 15)

Last updated on Sun Apr 12 2026 00:03:23 GMT+0000 (Coordinated Universal Time)

1 32260U 07047A 26100.91458025 .00000035 00000+0 00000+0 0 9990 2 32260 54.0462 82.8367 0164246 86.3177 275.5639 2.00558827135468
UTC large
Height (km)
Speed (km/s)
/
Latitude / Longitude
Inclination (degrees)
Orbital Period (minutes)
Azimuth
Elevation
Range (km)
Doppler Factor

Next 0 passes for location: London (51.5072 / 0.1276)

Sorry there are no passes over London.
GPS BIIRM-4 (PRN 15)